Regional Weather Roundup
Issued by NWS State College, PA

Home | Current Version | Previous Version | Graphics & Text | Print | Product List | Glossary On
Versions: 1 2 3 4 5 6 7 8 9 10 11 12 13 14 15 16 17 18 19 20 21 22 23 24 25 26 27 28 29 30 31 32 33 34 35 36 37 38 39 40 41 42 43 44 45 46 47 48 49 50
000
ASUS41 KCTP 250603
RWRCTP

REGIONAL WEATHER ROUNDUP
NATIONAL WEATHER SERVICE STATE COLLEGE PA
200 AM EDT SUN JUN 25 2017

Note: "fair" indicates few or no clouds below 12,000 feet with no
significant weather and/or obstructions to visibility.

* = STATION THAT DOES NOT REPORT PRECIPITATION /E.G. RAIN...SNOW...ETC/
    THUNDER OR FOG.

PAZ002>004-007>009-013>016-020>023-029>032-250700-
WESTERN PENNSYLVANIA

CITY           SKY/WX    TMP DP  RH WIND       PRES   REMARKS
ERIE           CLEAR     59  54  83 S5        29.99S
MEADVILLE      CLEAR     58  55  90 SW5       30.02S
FRANKLIN*      CLEAR     55  52  88 SW6       30.03S
NEW CASTLE     FAIR      58  57  97 CALM      30.03S
BEAVER COUNTY  NOT AVBL
BUTLER*        PTCLDY    59  55  88 CALM      30.03S
PITTSBURGH INT MOCLDY    64  57  78 SW3       30.02R
PITTSBURGH     MOCLDY    66  53  63 W3        30.02R
INDIANA*       CLEAR     61  57  88 SE3       30.05F
LATROBE        PTCLDY    61  59  94 NW3       30.04R
WASHINGTON CO* PTCLDY    59  55  88 SW3       30.05S
$$

PAZ004>006-010>012-017>019-024>028-033>037-041-042-045-046-049>053-250700-
CENTRAL PENNSYLVANIA

CITY           SKY/WX    TMP DP  RH WIND       PRES   REMARKS
BRADFORD       CLOUDY    59  52  77 SW3       30.02S
DUBOIS         CLOUDY    59  55  87 CALM      30.02S
CLEARFIELD     CLOUDY    59  58  96 CALM      30.03S
JOHNSTOWN      MOCLDY    62  54  74 S7        30.04F
ALTOONA        CLEAR     63  56  78 CALM      30.03S
STATE COLLEGE  PTCLDY    63  56  79 NW8       30.01S
WILLIAMSPORT   CLEAR     62  59  90 N6        29.97R
SELINSGROVE    CLEAR     62  61  96 CALM      29.98S
FT INDIANTOWN  CLEAR     62  62 100 CALM      29.97S
CAPITAL CITY   CLEAR     71  59  65 N3        29.97S
HARRISBURG     PTCLDY    69  62  78 NW6       29.96S
YORK           PTCLDY    66  61  84 CALM      29.98S
$$

PAZ038>040-043-044-047-048-054-055-060>062-067>071-250700-
EASTERN PENNSYLVANIA

CITY           SKY/WX    TMP DP  RH WIND       PRES   REMARKS
SCRANTON       CLEAR     61  59  93 E5        29.97S
MOUNT POCONO   CLEAR     57  56  96 NW6       30.00S
ALLENTOWN      CLEAR     68  58  70 CALM      29.95F
QUAKERTOWN*    CLEAR     66  63  88 CALM      29.97S
READING        CLEAR     66  66 100 NW3       29.95S
LANCASTER      CLEAR     69  63  81 W5        29.97S
COATESVILLE    CLEAR     70  61  73 NW9       29.98S
POTTSTOWN      CLEAR     68  62  81 CALM      29.97S
BLUE BELL      CLEAR     68  61  77 CALM      29.96R
DOYLESTOWN     PTCLDY    71  60  68 CALM      29.94F
WILLOW GROVE   NOT AVBL
NORTH PHILA    CLEAR     74  60  61 NW8       29.94F
PHILADELPHIA   PTCLDY    74  61  63 W8        29.93S
$$




USA.gov is the U.S. government's official web portal to all federal, state and local government web resources and services.